Location: Prairie Dale
(45.6972°N, 104.5033°W)
Time: 09:45:57
(UTC+00:00)

STARS - Pass Details

Date: 02 July 2022
Orbit: 620 x 637 km, 98.2° (Epoch: 14 August)

Event Time Altitude Azimuth Distance (km) Brightness Sun altitude
Rises 06:42:29 0° 2° (N) 2,934 ? -21.1°
Reaches altitude 10° 06:44:58 10° 350° (N) 2,018 ? -21.2°
Maximum altitude 06:48:34 25° 295° (WNW) 1,262 ? -21.2°
Enters shadow 06:50:54 16° 251° (WSW) 1,619 ? -21.2°
